Погода в Жудре

Россия / Орловская область     53°14′43″N   35°18′11″E
темп.,
°C
ветер,
м/с
пор.,
м/с
влажн.,
%
обл.,
%
осадки,
мм/ч
давл.,
гПа
погр.,
м
28 июля, ср
ср2800:00+18ююв117999 0.1 101811
03:00+18ююв2380100 0.1 101744
06:00+18ююв1274100 0.0 101617
09:00+18вюв1174100 0.1 101536
12:00+18ююв31172100 0.1 1015440
15:00+20ююз61070100 0.3 1014745
18:00+20ю3883100 0.6 1012631
21:00+18ююз2897100 2.2 1011218
29 июля, чт
чт2900:00+17ююз35965 0.0 101194
03:00+17зюз389710 0.1 1010165
06:00+17з2696100 0.0 1010140
09:00+22з35770 0.0 1009366
12:00+26з35667 1.5 10091072
15:00+28сз454426 2.3 10091920
18:00+28сз13505 0.0 10071394
21:00+22ююз1169100 0.0 100711
30 июля, пт
пт3000:00+19ю2282100 0.5 100731
03:00+18св1398100 3.3 100682
06:00+18зюз2598100 0.8 1007174
09:00+20зсз349189 0.9 1007445
12:00+24сз457061 0.3 10071081
15:00+26сз4550100 0.5 10071954
18:00+23з266661 0.0 1008347
21:00+20сз227242 0.0 100832
31 июля, сб
сб3100:00+17юз22839 0.0 100930
03:00+16юз33875 0.0 100954
06:00+17юз397769 0.0 1009213
09:00+23зюз595657 0.0 1009573
12:00+27зюз69425 0.0 10092107
15:00+28з694074 0.0 10092110
18:00+26з474977 0.0 10091258
21:00+20юз226867 0.0 100914
1 августа, вс
вс100:00+20ююв346993 0.0 100970
03:00+19ю3117215 0.0 1009207
06:00+19ю4126612 0.0 1008267
09:00+24ююз6135473 0.0 1007706
12:00+26зюз61054100 0.0 10081316
15:00+27з564933 0.0 10081862
18:00+25зсз45575 0.0 10091236
21:00+19зсз11845 0.0 100911